ECHO 2 DEB (METAL OBJ), 743

Orbit data source: Space-Track

ECHO 2 DEB (METAL OBJ), 743 is space debris in LEO originally from a launch on Sat, 25 Jan 1964 UTC launched from the Air Force Western Test Range (AFWTR). Debris objects in space refer to the collection of defunct objects orbiting the Earth. Examples of debris include non-operational satellites, rocket bodies, and fragments generated from explosions, collisions, or faulty payload assembly.

Loading next visibility...
Identifier
743, 1964-004D
Orbit
LEO
Country
Flag of USUS
Related business
Manufacturer
Grummann
Mission
Spacecraft
Bus & Motor
ECHO CANISTER, Unknown motor
Mass
35 kg wet, 35 kg dry
Launch date (UTC)
1964-01-25 (62 years ago)
Launch vehicle
Unknown
Launch site
Air Force Western Test Range (AFWTR)
Object type
Payload
Rocket body
Debris
Shape & HBR
Unknown shape, 0.9 m
Radar Cross Section
Medium (>0.1 m² and <1 m²)

Expand to show TLE details & history
Last TLE update: 11 hours ago

TLE from 11 hours ago
0 ECHO 2 DEB (METAL OBJ)
1   743U 64004D   25295.21995218  .00000184  00000-0  36016-3 0  9990
2   743  81.5254   0.0190 0174010 224.0847 190.7307 13.26833139986572
Epoch: 2025-10-22T05:16Z
TLE epoch observation values (Epoch: 2025-10-22T05:16:43.868Z)
Latitude
53.67928°
Longitude
-98.42575°
Altitude
1,296.425 km
Speed
7.151 km/s
True Right ascension
00h 46m 36s
True Declination
53° 31' 36"
Sunlit
Object was in full shadow at epoch
Visualization orbit readout
Latitude
Unknown
Longitude
Unknown
Altitude
Unknown
Speed
Unknown
Apparent Right ascension
Unknown
Apparent Declination
Unknown
Sunlit
N/A
Visualization observer readout
Local Sidereal Time
11:06:25
Azimuth
Unknown
Elevation
Unknown
Doppler factor
Unknown
Orbital elements
Apogee altitude
1,287.106 km
Perigee altitude
1,024.903 km
Semi-major axis
7,534.142 km
Eccentricity
0.0174
Inclination
81.5254°
RAAN
0.019°
Arg. of periapsis
224.0847°
True anomaly
190.36721°
Mean anomaly
190.7307°
Eccentric anomaly
190.54819°
Mean motion
3.31889 °/min
Orbital period
108.47 mins
BSTAR
0.00036016
Loading maneuver chart data...
Computing Atmospheric mass density...
Loading historical data...
Loading historical data...
Loading historical data...
Loading historical data...
Loading historical data...
Loading historical data...
Loading historical data...

Documentation

Showing up to 5 results
|